Location: *
(46.1333°S, 161.2167°W)
Time: 04:31:34
(UTC+00:00)

Aureole 3 - Pass Details

Date: 15 July 2020
Orbit: 383 x 1233 km, 82.5° (Epoch: 10 August)

Event Time Altitude Azimuth Distance (km) Brightness Sun altitude
Rises 16:39:20 0° 190° (S) 3,280 7.0 -17.2°
Reaches altitude 10° 16:41:59 10° 189° (S) 2,199 6.1 -16.7°
Maximum altitude 16:46:48 89° 269° (W) 597 3.4 -15.9°
Drops below altitude 10° 16:50:33 10° 7° (N) 1,720 6.1 -15.3°
Sets 16:52:25 0° 7° (N) 2,506 7.0 -15.0°
